Main page
METAR-TAF:

METAR-TAF

Airports :

Burgos Airport

Burgos, Spain

latitude: 42-22N, longitude: 003-38W, elevation: 894 m

Current weather observation

The report was made 13 minutes ago, at 14:30 UTC
Wind 8 kt from the South, varying between Southeast and South/Southwest
Temperature 13°C
Humidity 54%
Pressure 1025 hPa
Visibility 10 km or more
Broken clouds at a height of 4300 ft

METAR: LEBG 021430Z 17008KT 140V210 9999 BKN043 13/04 Q1025

Time: 15:43 (14:43 UTC)


TAF: missing

Weather observations and forecasts of more than 4000 airports (METAR and TAF reports).

The available stations are represented by yellow and red dots on the map.

Hover mouse over dot to see the name of the station.

Then click to see weather observations and forecasts.

To change the map : click on the green buttons with a black cross to zoom in, on the green button with a dash to zoom out, or on the green arrows for adjacent maps.


METAR-TAF: